| time (UTC) | temp F | wind direction | speed knots | gust knots | rain 1hr in | rain 24hr in | rain mn in | humidity % | barometer mb |
| 20260903230532 | 71 | 55 | 1.7 | 5.2 | 0.00 | 0.50 | 0.34 | 89 | 1009.3 |
| 20260903225529 | 71 | 59 | 1.7 | 2.6 | 0.00 | 0.50 | 0.34 | 89 | 1010.0 |
| 20260903224526 | 71 | 57 | 1.7 | 2.6 | 0.00 | 0.50 | 0.34 | 89 | 1010.2 |
| 20260903223543 | 71 | 353 | 0.9 | 2.6 | 0.00 | 0.50 | 0.34 | 89 | 1010.5 |
| 20260903222519 | 71 | 39 | 0.9 | 2.6 | 0.00 | 0.50 | 0.34 | 89 | 1010.6 |
| 20260903221516 | 71 | 353 | 0.0 | 0.9 | 0.00 | 0.50 | 0.34 | 89 | 1010.8 |
| 20260903220555 | 70 | 354 | 0.9 | 1.7 | 0.00 | 0.50 | 0.34 | 89 | 1011.1 |
| 20260903215550 | 70 | 297 | 1.7 | 3.5 | 0.00 | 0.50 | 0.34 | 88 | 1011.4 |
| 20260903214527 | 70 | 341 | 1.7 | 5.2 | 0.02 | 0.50 | 0.34 | 88 | 1011.1 |
| 20260903213524 | 70 | 355 | 0.9 | 1.7 | 0.04 | 0.50 | 0.34 | 88 | 1010.7 |
| 20260903212542 | 70 | 345 | 0.9 | 1.7 | 0.05 | 0.50 | 0.34 | 88 | 1011.0 |
| 20260903211537 | 70 | 0 | 0.0 | 1.7 | 0.13 | 0.50 | 0.34 | 88 | 1010.9 |
| 20260903210536 | 70 | 347 | 0.9 | 2.6 | 0.13 | 0.50 | 0.34 | 87 | 1011.2 |
| 20260903205531 | 70 | 312 | 2.6 | 7.0 | 0.13 | 0.49 | 0.33 | 87 | 1011.0 |
| 20260903204526 | 70 | 10 | 2.6 | 6.1 | 0.11 | 0.47 | 0.31 | 86 | 1010.3 |
| 20260903201530 | 73 | 323 | 4.3 | 11.3 | 0.00 | 0.37 | 0.20 | 83 | 1010.7 |
| 20260903200525 | 73 | 2 | 2.6 | 6.1 | 0.00 | 0.37 | 0.20 | 83 | 1011.0 |
| 20260903195524 | 73 | 30 | 0.9 | 3.5 | 0.00 | 0.37 | 0.20 | 83 | 1009.1 |
| 20260903194523 | 74 | 4 | 1.7 | 2.6 | 0.00 | 0.37 | 0.20 | 83 | 1009.8 |
| 20260903193518 | 74 | 47 | 0.0 | 0.9 | 0.00 | 0.37 | 0.20 | 83 | 1009.3 |
| 20260903192535 | 74 | 48 | 0.9 | 2.6 | 0.00 | 0.37 | 0.20 | 83 | 1009.3 |
| 20260903191612 | 74 | 48 | 0.9 | 1.7 | 0.00 | 0.37 | 0.20 | 82 | 1009.7 |
| 20260903190528 | 74 | 46 | 0.9 | 1.7 | 0.00 | 0.37 | 0.20 | 82 | 1009.8 |
| 20260903185526 | 74 | 47 | 1.7 | 2.6 | 0.00 | 0.37 | 0.20 | 82 | 1009.8 |
| 20260903185018 | 74 | 33 | 0.9 | 2.6 | 0.00 | 0.37 | 0.20 | 82 | 1009.9 |
| 20260903184034 | 75 | 30 | 0.9 | 1.7 | 0.00 | 0.37 | 0.20 | 82 | 1010.1 |
| 20260903183030 | 75 | 47 | 1.7 | 2.6 | 0.00 | 0.37 | 0.20 | 83 | 1010.1 |
| 20260903182029 | 75 | 46 | 1.7 | 3.5 | 0.00 | 0.37 | 0.20 | 84 | 1009.8 |
| 20260903181044 | 74 | 41 | 0.9 | 2.6 | 0.01 | 0.37 | 0.20 | 84 | 1009.5 |
| 20260903180041 | 73 | 32 | 0.9 | 5.2 | 0.02 | 0.37 | 0.20 | 85 | 1009.6 |
| 20260903175018 | 73 | 19 | 1.7 | 5.2 | 0.02 | 0.37 | 0.20 | 85 | 1009.8 |
| 20260903174035 | 72 | 17 | 0.9 | 3.5 | 0.02 | 0.37 | 0.20 | 85 | 1009.5 |
| 20260903173032 | 72 | 6 | 1.7 | 3.5 | 0.03 | 0.37 | 0.20 | 85 | 1009.5 |
| 20260903172029 | 71 | 114 | 3.5 | 7.8 | 0.04 | 0.37 | 0.20 | 84 | 1009.2 |
| 20260903171025 | 71 | 93 | 0.9 | 2.6 | 0.06 | 0.35 | 0.19 | 84 | 1010.1 |
| 20260903170022 | 71 | 120 | 1.7 | 2.6 | 0.09 | 0.35 | 0.18 | 83 | 1010.5 |
| 20260903165019 | 71 | 179 | 2.6 | 8.7 | 0.09 | 0.35 | 0.18 | 83 | 1010.3 |
| 20260903164016 | 71 | 355 | 0.9 | 1.7 | 0.09 | 0.35 | 0.18 | 83 | 1010.6 |
| 20260903163033 | 71 | 349 | 0.0 | 2.6 | 0.08 | 0.33 | 0.17 | 82 | 1010.8 |
| 20260903162030 | 71 | 324 | 3.5 | 7.0 | 0.08 | 0.33 | 0.16 | 81 | 1011.0 |
| 20260903161028 | 74 | 298 | 7.0 | 18.2 | 0.05 | 0.30 | 0.13 | 80 | 1012.2 |
| 20260903160044 | 76 | 284 | 9.6 | 28.7 | 0.01 | 0.26 | 0.09 | 82 | 1012.8 |
| 20260903155020 | 76 | 118 | 0.0 | 0.9 | 0.00 | 0.25 | 0.08 | 81 | 1011.4 |
| 20260903154037 | 76 | 117 | 0.0 | 0.9 | 0.00 | 0.25 | 0.08 | 80 | 1011.2 |
| 20260903153034 | 77 | 116 | 0.0 | 0.9 | 0.00 | 0.25 | 0.08 | 80 | 1011.0 |
| 20260903152031 | 77 | 116 | 0.0 | 0.9 | 0.00 | 0.25 | 0.08 | 79 | 1010.8 |
| 20260903151028 | 78 | 113 | 2.6 | 3.5 | 0.00 | 0.25 | 0.08 | 79 | 1010.4 |
| 20260903150024 | 79 | 114 | 2.6 | 6.1 | 0.00 | 0.25 | 0.08 | 79 | 1010.1 |
| 20260903145021 | 80 | 115 | 2.6 | 3.5 | 0.00 | 0.25 | 0.08 | 80 | 1010.2 |
| 20260903144040 | 79 | 116 | 2.6 | 3.5 | 0.00 | 0.25 | 0.08 | 80 | 1010.4 |
| 20260903143035 | 79 | 115 | 2.6 | 5.2 | 0.00 | 0.25 | 0.08 | 81 | 1010.4 |
| 20260903142032 | 79 | 115 | 2.6 | 5.2 | 0.00 | 0.25 | 0.08 | 81 | 1010.2 |
| 20260903141029 | 78 | 114 | 1.7 | 2.6 | 0.00 | 0.25 | 0.08 | 82 | 1010.0 |
| 20260903140026 | 77 | 112 | 0.9 | 3.5 | 0.00 | 0.25 | 0.08 | 82 | 1010.3 |
| 20260903135023 | 77 | 112 | 0.9 | 2.6 | 0.00 | 0.25 | 0.08 | 83 | 1010.4 |
| 20260903134019 | 77 | 113 | 1.7 | 2.6 | 0.00 | 0.25 | 0.08 | 84 | 1010.4 |
| 20260903133016 | 76 | 201 | 1.7 | 2.6 | 0.00 | 0.25 | 0.08 | 84 | 1010.4 |
| 20260903132033 | 76 | 260 | 0.0 | 1.7 | 0.00 | 0.25 | 0.08 | 85 | 1010.5 |
| 20260903131030 | 75 | 258 | 0.0 | 0.9 | 0.00 | 0.25 | 0.08 | 85 | 1010.5 |
| 20260903130048 | 74 | 258 | 0.0 | 0.9 | 0.00 | 0.25 | 0.08 | 85 | 1010.6 |
| 20260903125023 | 74 | 258 | 0.9 | 0.9 | 0.00 | 0.25 | 0.08 | 85 | 1010.8 |
| 20260903124040 | 74 | 258 | 0.9 | 1.7 | 0.00 | 0.25 | 0.08 | 85 | 1010.8 |
| 20260903123017 | 73 | 259 | 1.7 | 3.5 | 0.00 | 0.25 | 0.08 | 85 | 1010.8 |
| 20260903121031 | 72 | 257 | 1.7 | 3.5 | 0.00 | 0.25 | 0.08 | 85 | 1010.6 |
| 20260903120028 | 72 | 250 | 2.6 | 3.5 | 0.00 | 0.25 | 0.08 | 84 | 1010.6 |
| 20260903115025 | 72 | 257 | 0.9 | 1.7 | 0.00 | 0.25 | 0.08 | 84 | 1010.5 |
| 20260903114021 | 72 | 257 | 1.7 | 2.6 | 0.00 | 0.25 | 0.08 | 84 | 1010.5 |
| 20260903113038 | 72 | 255 | 0.9 | 2.6 | 0.00 | 0.25 | 0.08 | 84 | 1010.6 |
| 20260903112035 | 72 | 260 | 0.9 | 2.6 | 0.00 | 0.25 | 0.08 | 84 | 1010.5 |
| 20260903111032 | 72 | 260 | 2.6 | 3.5 | 0.00 | 0.25 | 0.08 | 84 | 1010.5 |
| 20260903110028 | 72 | 261 | 1.7 | 3.5 | 0.00 | 0.25 | 0.08 | 84 | 1010.2 |
| 20260903105027 | 72 | 262 | 0.9 | 1.7 | 0.00 | 0.25 | 0.08 | 84 | 1010.1 |
| 20260903104022 | 72 | 264 | 0.9 | 2.6 | 0.00 | 0.25 | 0.08 | 84 | 1010.1 |
| 20260903103041 | 72 | 264 | 0.9 | 2.6 | 0.00 | 0.25 | 0.08 | 84 | 1010.0 |
| 20260903102016 | 72 | 262 | 1.7 | 3.5 | 0.00 | 0.25 | 0.08 | 85 | 1010.1 |
| 20260903101033 | 72 | 262 | 2.6 | 5.2 | 0.00 | 0.25 | 0.08 | 85 | 1010.0 |
| 20260903100029 | 71 | 258 | 2.6 | 5.2 | 0.00 | 0.25 | 0.08 | 85 | 1009.9 |
| 20260903095047 | 71 | 262 | 2.6 | 5.2 | 0.00 | 0.25 | 0.08 | 85 | 1009.9 |
| 20260903094024 | 71 | 271 | 1.7 | 3.5 | 0.00 | 0.25 | 0.08 | 85 | 1010.0 |
| 20260903093020 | 71 | 358 | 1.7 | 3.5 | 0.00 | 0.25 | 0.08 | 84 | 1009.9 |
| 20260903092017 | 71 | 14 | 0.9 | 1.7 | 0.00 | 0.25 | 0.08 | 85 | 1009.7 |
| 20260903091034 | 72 | 5 | 0.9 | 2.6 | 0.00 | 0.25 | 0.08 | 84 | 1009.7 |
| 20260903090031 | 72 | 323 | 1.7 | 3.5 | 0.00 | 0.25 | 0.08 | 84 | 1009.6 |
| 20260903085027 | 72 | 326 | 1.7 | 3.5 | 0.00 | 0.25 | 0.08 | 84 | 1009.4 |
| 20260903084024 | 72 | 313 | 2.6 | 6.1 | 0.00 | 0.25 | 0.08 | 84 | 1009.5 |
| 20260903083021 | 72 | 353 | 1.7 | 3.5 | 0.00 | 0.25 | 0.08 | 84 | 1009.4 |
| 20260903082018 | 72 | 2 | 0.9 | 2.6 | 0.02 | 0.25 | 0.08 | 84 | 1009.3 |
| 20260903081034 | 72 | 310 | 2.6 | 6.1 | 0.02 | 0.25 | 0.08 | 84 | 1009.2 |
| 20260903080032 | 71 | 275 | 3.5 | 8.7 | 0.02 | 0.25 | 0.08 | 84 | 1009.5 |
| 20260903075028 | 71 | 288 | 3.5 | 7.0 | 0.02 | 0.25 | 0.08 | 84 | 1009.2 |
| 20260903074025 | 71 | 345 | 0.9 | 1.7 | 0.03 | 0.25 | 0.08 | 84 | 1009.0 |
| 20260903073022 | 71 | 38 | 1.7 | 3.5 | 0.04 | 0.25 | 0.08 | 84 | 1009.0 |
| 20260903072018 | 71 | 297 | 3.5 | 7.0 | 0.02 | 0.23 | 0.06 | 84 | 1009.4 |
| 20260903071015 | 72 | 295 | 3.5 | 8.7 | 0.02 | 0.23 | 0.06 | 84 | 1009.4 |
| 20260903070032 | 72 | 308 | 3.5 | 7.0 | 0.02 | 0.23 | 0.06 | 85 | 1009.7 |
| 20260903065029 | 72 | 297 | 4.3 | 7.0 | 0.02 | 0.23 | 0.06 | 85 | 1010.0 |
| 20260903064026 | 72 | 337 | 3.5 | 7.0 | 0.01 | 0.22 | 0.06 | 84 | 1009.6 |
| 20260903063023 | 72 | 1 | 0.9 | 2.6 | 0.00 | 0.22 | 0.05 | 84 | 1009.3 |
| 20260903062021 | 72 | 359 | 0.0 | 0.9 | 0.01 | 0.22 | 0.05 | 84 | 1009.3 |
| 20260903061016 | 72 | 359 | 0.9 | 1.7 | 0.05 | 0.22 | 0.05 | 83 | 1009.3 |
| 20260903060033 | 72 | 5 | 0.9 | 1.7 | 0.05 | 0.22 | 0.05 | 83 | 1009.5 |
| 20260903055032 | 72 | 3 | 0.9 | 2.6 | 0.05 | 0.22 | 0.05 | 83 | 1009.5 |
| 20260903054028 | 72 | 38 | 0.0 | 0.9 | 0.05 | 0.22 | 0.05 | 83 | 1009.5 |
| 20260903053024 | 72 | 38 | 0.9 | 1.7 | 0.05 | 0.22 | 0.05 | 82 | 1009.5 |
| 20260903052020 | 73 | 1 | 1.7 | 3.5 | 0.04 | 0.21 | 0.04 | 82 | 1010.4 |
| 20260903051017 | 73 | 36 | 0.0 | 1.7 | 0.00 | 0.17 | 0.00 | 82 | 1010.1 |
| 20260903050034 | 73 | 36 | 0.9 | 1.7 | 0.00 | 0.17 | 0.00 | 81 | 1010.1 |
| 20260903045031 | 73 | 36 | 1.7 | 3.5 | 0.00 | 0.17 | 0.00 | 81 | 1010.2 |
| 20260903044028 | 73 | 18 | 0.9 | 1.7 | 0.02 | 0.17 | 0.00 | 81 | 1010.1 |
| 20260903043017 | 73 | 3 | 1.7 | 2.6 | 0.06 | 0.17 | 0.00 | 81 | 1009.9 |
| 20260903042034 | 74 | 25 | 0.0 | 1.7 | 0.15 | 0.17 | 0.00 | 80 | 1009.7 |
| 20260903041031 | 74 | 18 | 0.9 | 1.7 | 0.17 | 0.17 | 0.00 | 79 | 1010.0 |
| 20260903040028 | 74 | 35 | 0.9 | 2.6 | 0.17 | 0.17 | 0.22 | 78 | 1010.1 |
| 20260903035024 | 74 | 23 | 0.0 | 1.7 | 0.17 | 0.17 | 0.21 | 78 | 1010.4 |
| 20260903034023 | 75 | 32 | 0.9 | 2.6 | 0.15 | 0.15 | 0.20 | 77 | 1010.4 |
| 20260903033034 | 76 | 21 | 0.9 | 1.7 | 0.12 | 0.12 | 0.12 | 75 | 1009.4 |
| 20260903032049 | 76 | 24 | 1.7 | 3.5 | 0.03 | 0.03 | 0.03 | 75 | 1009.6 |
| 20260903031045 | 76 | 32 | 1.7 | 5.2 | 0.00 | 0.00 | 0.00 | 75 | 1008.8 |
| 20260903030021 | 76 | 45 | 1.7 | 5.2 | 0.00 | 0.00 | 0.00 | 75 | 1008.8 |
| 20260903025017 | 77 | 39 | 2.6 | 7.0 | 0.00 | 0.00 | 0.00 | 75 | 1008.1 |
| 20260903024055 | 77 | 29 | 1.7 | 5.2 | 0.00 | 0.00 | 0.00 | 74 | 1008.2 |
| 20260903023030 | 77 | 17 | 0.9 | 3.5 | 0.00 | 0.00 | 0.00 | 74 | 1008.6 |
| 20260903022026 | 77 | 6 | 1.7 | 3.5 | 0.00 | 0.00 | 0.00 | 74 | 1009.0 |
| 20260903021024 | 77 | 11 | 1.7 | 5.2 | 0.00 | 0.00 | 0.00 | 73 | 1008.9 |
| 20260903020018 | 78 | 39 | 1.7 | 3.5 | 0.00 | 0.00 | 0.00 | 72 | 1008.8 |
| 20260903015035 | 79 | 27 | 0.9 | 3.5 | 0.00 | 0.00 | 0.00 | 72 | 1008.8 |
| 20260903014031 | 79 | 58 | 3.5 | 6.1 | 0.00 | 0.00 | 0.00 | 71 | 1008.7 |
| 20260903013047 | 79 | 32 | 1.7 | 3.5 | 0.00 | 0.00 | 0.00 | 70 | 1008.5 |
| 20260903012023 | 80 | 32 | 0.9 | 3.5 | 0.00 | 0.00 | 0.00 | 69 | 1008.6 |
| 20260903011521 | 80 | 40 | 1.7 | 7.8 | 0.00 | 0.00 | 0.00 | 68 | 1008.4 |
| 20260903010536 | 81 | 44 | 0.9 | 2.6 | 0.00 | 0.00 | 0.00 | 66 | 1008.3 |
| 20260903005552 | 82 | 54 | 2.6 | 6.1 | 0.00 | 0.00 | 0.00 | 65 | 1008.4 |
| 20260903004528 | 83 | 48 | 2.6 | 5.2 | 0.00 | 0.00 | 0.00 | 63 | 1008.3 |
| 20260903003524 | 84 | 39 | 1.7 | 2.6 | 0.00 | 0.00 | 0.00 | 62 | 1007.9 |
| 20260903002541 | 86 | 30 | 0.9 | 3.5 | 0.00 | 0.00 | 0.00 | 58 | 1007.8 |
| 20260903001536 | 88 | 46 | 1.7 | 5.2 | 0.00 | 0.00 | 0.00 | 55 | 1007.7 |
| 20260903000533 | 90 | 358 | 0.0 | 0.9 | 0.00 | 0.00 | 0.00 | 52 | 1007.7 |
| 20260902235529 | 91 | 328 | 0.9 | 2.6 | 0.00 | 0.00 | 0.00 | 51 | 1007.7 |
| 20260902234605 | 91 | 322 | 1.7 | 5.2 | 0.00 | 0.00 | 0.00 | 50 | 1007.9 |
| 20260902233521 | 92 | 292 | 5.2 | 12.2 | 0.00 | 0.00 | 0.00 | 49 | 1008.1 |
| 20260902232516 | 92 | 299 | 5.2 | 12.2 | 0.00 | 0.00 | 0.00 | 49 | 1008.0 |
| 20260902231553 | 92 | 293 | 6.1 | 14.8 | 0.00 | 0.00 | 0.00 | 50 | 1008.0 |